Theta_e
349 349 348 347 345 340 333 330 330 331 330 330 328 326 326 325 325 326 326 326 326 326 327 328 329 330 329 333 338 341 342 341 340 340 339 338 338 338 339 340 341 339 337 338 342 341 336 336 340 344 346 345 343 343 342 339 337 334 333 335 337 340 343 342 340 338 335 336 332 328 328 328 327 327 327 328 331 334 336 339 342 345 350 354 354
349 350 350 349 348 345 339 333 331 331 330 330 329 328 327 326 325 325 325 326 326 325 325 327 328 330 330 331 334 337 340 342 341 339 338 337 338 338 338 338 339 340 339 336 338 340 339 336 335 338 341 340 337 336 336 334 334 334 335 337 338 342 346 347 347 344 338 335 332 329 329 329 327 328 328 329 330 332 336 340 345 350 354 356 354
351 351 351 351 350 349 345 339 334 333 332 331 330 328 327 327 326 326 326 326 326 326 326 326 328 330 330 331 332 334 337 340 342 341 338 337 337 337 338 338 338 338 339 339 337 338 339 338 336 337 339 339 335 334 335 335 335 335 335 337 338 341 346 349 350 348 344 339 333 330 330 329 327 328 329 330 331 331 334 340 346 351 354 354 351
352 353 353 352 352 351 349 346 340 336 334 332 329 328 327 326 326 326 326 326 325 326 325 325 328 330 330 331 332 333 335 338 341 342 340 338 337 336 337 338 338 337 338 338 339 338 339 338 338 338 339 339 337 337 336 336 336 336 336 337 338 339 344 349 352 351 350 345 338 333 331 329 327 327 328 330 330 331 334 340 345 348 349 350 349
354 354 354 353 353 353 351 350 346 342 337 333 331 328 327 326 326 325 326 326 326 326 325 325 327 331 331 331 331 333 334 336 339 341 341 340 338 336 336 337 338 337 336 336 337 337 338 337 337 337 337 337 336 336 335 335 335 336 335 336 337 339 341 346 350 350 350 347 340 334 331 328 327 326 328 331 329 330 333 339 345 347 346 347 348
355 355 355 355 355 354 353 353 351 347 342 338 333 330 329 327 326 325 325 325 325 325 325 326 326 330 332 331 331 332 333 335 337 339 340 340 340 339 337 336 336 336 336 336 336 336 335 336 335 335 335 335 335 334 334 334 334 334 335 335 336 338 339 341 344 345 346 343 339 334 328 327 328 327 329 331 329 330 333 338 343 345 345 346 348
356 356 356 356 356 355 355 354 353 351 348 344 339 334 331 329 327 326 325 325 325 325 325 325 326 329 331 331 332 332 333 334 335 337 339 339 340 339 339 338 336 336 336 336 337 337 335 336 335 335 335 335 335 335 334 334 334 334 334 335 335 337 338 338 338 340 340 338 336 333 328 327 327 327 328 330 329 332 336 338 341 343 344 346 349
357 357 357 357 357 356 356 355 355 354 351 349 345 340 336 333 330 328 326 326 325 325 325 326 327 329 332 332 332 333 333 334 334 336 337 338 339 338 339 339 338 337 337 337 336 336 336 336 336 336 337 336 335 334 333 333 333 333 333 333 335 336 336 336 336 337 337 336 335 332 329 328 327 327 328 328 330 333 337 340 341 342 345 348 352
358 358 358 358 358 357 357 356 356 355 354 352 349 346 342 338 335 332 330 329 327 327 327 327 329 331 332 333 333 334 335 334 334 335 336 337 337 337 337 338 338 338 338 337 337 337 337 336 336 336 336 336 335 334 334 332 332 332 332 332 334 335 335 335 336 336 336 335 333 331 329 329 328 328 328 329 330 332 336 339 341 344 347 349 353
358 359 358 358 358 358 358 357 357 357 356 355 353 350 347 343 340 337 334 332 330 330 330 331 332 333 333 334 335 336 336 335 334 333 334 335 337 336 337 337 337 338 339 338 337 337 336 336 336 336 335 335 334 333 333 332 331 330 331 333 336 337 338 338 337 336 336 334 333 332 331 329 328 328 329 329 331 333 335 338 341 346 351 351 352
359 359 359 359 359 359 359 359 359 359 358 357 356 354 351 347 345 341 339 336 335 334 335 335 336 335 335 334 335 336 336 335 334 333 333 334 335 335 335 336 337 337 338 338 337 336 335 335 334 333 333 333 333 332 331 331 330 330 330 334 339 341 342 341 339 337 338 337 336 334 332 329 327 329 330 330 333 335 336 339 344 350 354 354 355
360 360 360 360 360 360 361 361 360 360 359 358 357 356 354 351 348 345 343 342 339 338 338 338 338 337 337 337 337 336 336 335 335 335 333 333 334 334 334 335 335 336 336 336 336 336 335 335 334 333 332 332 331 331 331 331 330 330 330 334 342 345 345 344 342 340 341 340 340 337 334 331 330 330 333 335 337 339 340 344 349 354 355 355 357
361 361 361 361 361 362 362 362 362 362 361 360 358 357 356 353 350 348 347 345 343 342 341 340 340 340 340 339 338 336 336 335 336 336 335 334 334 334 335 334 335 335 335 334 334 335 335 334 334 334 333 332 333 332 332 332 332 331 331 336 342 346 346 345 344 343 343 344 343 338 334 334 333 331 335 339 340 342 344 348 352 355 356 356 357
360 362 363 363 363 363 363 363 363 363 362 361 360 358 356 355 353 350 348 347 347 345 344 342 343 343 343 341 338 336 336 336 337 337 336 336 335 334 335 335 335 335 335 335 334 334 334 334 334 334 333 333 333 333 333 332 333 334 335 339 342 344 345 345 344 344 345 345 345 340 337 339 338 333 337 343 345 346 348 350 353 355 355 355 357
361 362 363 364 364 363 363 363 364 363 364 363 362 360 358 356 355 352 350 349 348 347 345 345 346 346 345 342 339 337 337 337 336 338 338 337 337 338 337 337 336 336 335 336 336 334 334 334 334 334 334 334 333 333 333 333 335 336 338 341 344 345 345 345 345 345 346 345 346 345 343 343 342 338 339 344 346 349 351 352 354 355 355 355 356
361 361 361 363 364 365 364 364 364 364 364 364 363 362 360 358 356 354 352 350 350 349 348 348 348 347 346 344 341 340 338 337 338 338 339 339 340 341 342 342 341 340 339 337 336 335 335 335 335 335 334 334 333 333 333 335 338 339 340 342 346 348 348 348 347 348 347 347 348 348 347 347 346 343 340 341 346 350 353 353 354 356 355 355 354
358 358 358 360 362 365 365 365 364 364 365 364 364 363 362 360 357 356 354 352 352 352 351 351 350 349 347 345 344 342 340 338 338 338 339 340 342 343 344 345 346 344 341 338 337 336 336 336 336 336 335 334 333 333 334 338 341 342 343 342 346 348 347 346 347 347 346 347 348 350 350 349 347 344 341 341 346 352 354 354 354 355 354 352 349
359 358 357 357 359 362 364 365 365 365 365 364 364 364 363 361 359 357 355 354 353 353 353 353 352 351 349 347 346 345 342 341 339 338 338 341 344 346 346 347 347 346 344 341 339 338 337 336 337 337 336 334 334 334 336 340 343 343 343 343 344 343 340 338 341 342 341 343 345 347 348 347 345 343 342 342 348 353 354 353 354 355 352 348 345
361 361 360 359 358 358 361 364 365 365 365 365 365 365 363 363 362 358 357 355 354 354 354 354 353 353 351 350 349 348 347 344 342 339 339 342 346 349 349 349 348 347 345 344 342 340 338 337 337 338 336 335 335 335 336 342 345 344 343 345 345 340 333 333 336 337 339 341 342 344 344 345 345 345 343 344 350 354 353 353 354 355 352 348 345
359 360 361 361 360 359 360 364 365 365 364 364 365 365 364 363 363 361 358 356 355 355 355 355 355 354 353 353 352 352 351 349 346 344 342 343 347 350 352 352 351 350 348 346 345 343 342 340 338 337 336 335 335 336 337 342 345 346 347 351 348 338 333 336 338 339 341 342 343 345 346 347 349 347 343 343 348 352 352 352 352 353 353 351 349
356 358 360 361 362 361 362 363 365 364 363 364 365 364 364 364 363 362 360 358 356 356 356 356 356 355 355 355 355 354 353 352 350 347 345 345 346 351 353 353 352 351 350 348 347 346 344 343 340 337 337 337 337 338 339 342 344 346 348 349 346 342 342 343 342 342 344 346 346 348 349 350 349 346 342 343 347 350 349 348 348 349 352 353 352
352 355 358 359 361 362 362 363 365 364 363 364 364 364 364 364 364 362 361 359 358 356 356 356 356 356 356 356 357 356 355 354 352 350 348 346 347 350 352 353 352 352 353 352 350 347 344 343 342 341 341 341 340 342 343 343 346 347 347 345 346 348 349 348 344 344 346 348 350 351 350 349 348 345 343 345 347 347 345 344 345 347 350 350 351
345 351 355 357 359 361 362 362 364 365 365 364 364 365 364 364 363 363 362 361 359 357 357 357 357 357 357 357 357 357 356 356 354 352 351 349 348 349 352 353 353 354 355 354 351 345 343 342 343 343 344 345 345 346 346 347 348 348 347 347 349 350 351 350 347 346 347 348 350 351 350 349 348 346 344 344 345 344 344 346 348 349 350 349 348
340 346 352 356 358 360 361 362 362 364 365 364 364 364 365 364 363 363 362 361 360 359 358 357 357 357 357 357 357 357 357 357 356 354 352 351 350 350 351 353 354 355 355 355 352 347 344 344 346 346 347 346 347 348 349 349 349 348 348 349 349 350 350 349 347 346 347 348 350 350 350 349 348 346 344 344 345 346 348 350 350 350 350 348 345
344 345 348 353 357 360 360 361 362 363 364 365 364 364 364 364 364 363 363 362 361 360 359 359 358 357 357 357 357 357 357 357 356 355 354 352 352 351 350 351 353 354 354 355 353 350 348 348 348 348 348 349 350 351 351 351 350 350 349 348 347 347 346 345 345 346 348 349 350 350 350 349 348 346 346 347 348 350 351 350 351 350 349 345 341
351 350 350 353 357 360 360 361 361 362 363 365 364 363 363 364 364 364 363 363 362 361 360 359 358 358 357 357 357 357 357 357 356 356 355 354 353 352 352 352 352 354 354 353 353 353 352 351 351 351 351 352 353 353 353 352 352 351 350 347 346 345 344 345 346 348 349 350 351 351 350 349 349 349 349 350 351 351 350 349 350 351 349 345 340
354 354 354 355 357 359 360 359 361 362 363 365 365 365 364 364 364 364 364 363 363 362 361 360 359 358 358 357 357 357 357 357 356 356 355 354 353 353 353 353 354 354 354 354 353 354 354 353 353 353 353 355 355 355 355 355 354 354 352 350 349 348 349 350 351 351 352 352 352 351 350 351 351 351 351 351 350 349 348 348 351 352 349 343 338
355 357 358 360 359 359 359 359 360 361 363 365 366 365 365 365 364 364 364 364 363 362 362 361 360 359 358 357 357 358 358 358 357 356 354 353 353 352 353 353 354 355 355 355 354 354 354 354 355 355 356 356 356 356 356 356 356 355 354 353 352 352 354 355 355 355 355 354 354 354 353 353 352 350 349 348 347 348 349 350 352 352 347 341 337
355 358 361 362 362 360 359 361 361 361 362 364 365 365 365 364 364 363 363 364 364 363 362 362 361 360 359 358 357 357 357 357 356 355 354 351 349 349 348 347 349 351 352 352 354 356 356 356 356 356 357 357 357 357 357 357 357 357 356 356 356 356 357 357 357 357 356 356 356 356 355 355 353 350 348 347 348 349 351 353 353 349 344 340 336
354 358 361 363 364 362 362 364 363 362 362 363 364 366 366 365 364 363 363 363 363 362 363 362 362 361 361 359 358 357 356 355 355 355 356 353 349 347 345 343 345 346 345 349 354 357 358 357 357 357 357 357 357 358 358 358 358 358 358 358 357 357 357 357 358 358 358 358 358 358 357 356 355 353 351 349 350 352 353 353 351 346 342 339 334
352 356 359 362 365 365 365 366 365 362 362 363 364 366 367 366 366 366 365 364 364 363 364 364 363 363 362 361 360 358 356 356 356 356 356 354 351 348 346 345 345 344 344 348 354 356 356 357 357 357 357 357 357 357 358 358 358 358 359 359 358 358 357 357 357 359 359 359 359 359 357 357 355 354 353 351 351 354 354 351 347 342 339 337 331
350 353 357 361 364 365 367 367 366 363 362 364 365 366 367 367 367 366 366 366 366 365 365 364 363 363 363 362 362 361 359 357 356 356 355 355 353 349 347 347 348 348 349 352 354 355 356 356 355 355 356 356 357 357 358 358 358 358 359 358 358 357 357 356 357 358 359 359 359 358 357 356 355 353 353 352 352 353 353 349 344 340 337 335 328
350 352 355 359 362 365 366 366 366 365 364 364 365 366 367 367 367 366 366 366 366 366 366 365 364 363 363 364 364 363 361 359 357 356 355 355 354 352 350 350 352 354 354 355 356 355 356 356 356 356 356 356 357 358 358 359 359 359 359 359 358 358 357 356 356 356 357 358 357 356 355 354 352 352 353 353 353 352 351 346 341 339 337 332 327
350 352 354 357 360 364 366 366 366 365 365 365 365 365 366 365 365 364 365 365 366 366 366 365 364 363 363 365 365 365 364 362 361 358 357 355 354 354 353 355 355 356 357 357 356 356 356 356 357 357 357 357 358 358 359 359 359 358 358 358 358 358 357 356 355 356 356 355 355 354 353 351 351 352 353 353 352 350 347 343 340 339 336 330 327
348 351 353 355 357 361 363 365 366 365 366 366 366 366 365 365 365 364 364 365 365 366 366 365 364 363 363 365 365 365 365 364 363 361 359 356 355 354 355 355 356 355 355 356 356 356 356 356 356 357 358 358 359 360 359 358 357 357 357 357 358 358 357 356 355 355 355 354 353 351 350 350 351 352 352 352 352 349 345 341 341 339 334 329 330
345 349 351 353 354 357 360 363 365 365 364 365 366 366 366 367 366 365 364 365 366 367 367 365 364 362 363 364 365 365 366 366 364 363 361 359 357 355 355 355 354 353 353 353 354 355 355 356 356 358 359 360 360 359 356 354 355 357 357 357 358 358 357 357 356 355 354 354 353 352 350 350 350 351 351 352 352 349 345 343 340 335 329 330 334
340 345 349 351 353 355 358 360 362 363 364 364 364 367 367 367 366 366 365 364 365 366 366 366 365 364 364 364 364 365 366 366 365 364 362 361 359 357 356 355 354 353 353 353 353 354 355 355 356 358 359 361 360 356 353 353 356 357 357 357 357 357 357 356 356 355 354 354 354 353 352 351 350 351 351 351 350 347 344 340 335 331 330 334 336
337 341 346 349 352 354 356 358 360 362 363 361 362 363 364 365 365 366 365 363 362 362 363 363 364 365 365 363 362 364 365 365 365 364 363 361 360 358 357 357 356 356 356 355 354 355 356 356 358 359 360 361 359 354 353 354 354 354 355 356 356 356 356 356 355 355 355 355 355 354 353 352 351 351 350 348 346 342 339 336 332 331 333 336 335
335 339 344 347 351 353 355 357 358 360 360 359 358 359 360 361 362 364 364 364 363 361 359 359 362 364 364 362 362 364 365 365 364 365 363 362 361 359 358 358 358 359 358 356 357 357 358 359 360 361 362 362 360 355 354 356 355 354 355 356 356 356 355 355 354 354 354 354 355 355 353 352 351 348 346 344 342 339 336 333 332 333 334 335 334
333 337 341 344 347 351 354 356 357 358 358 359 359 358 358 358 359 360 362 363 361 358 357 357 359 361 362 360 358 360 364 364 364 364 363 362 361 360 360 360 361 360 360 359 359 360 361 361 362 362 363 363 360 357 356 357 356 355 355 357 358 357 357 355 354 353 354 354 354 353 352 351 348 345 343 341 339 336 333 331 332 333 334 334 333
331 334 337 339 342 346 352 355 356 356 357 358 359 359 359 359 358 359 360 360 359 358 358 359 358 358 359 358 355 356 361 365 365 364 364 363 362 361 361 361 362 362 361 361 362 362 362 362 362 363 363 363 362 361 360 358 357 357 357 357 358 358 358 357 356 354 354 354 353 353 351 348 345 343 342 338 336 334 331 329 331 333 334 333 333
331 332 334 336 338 343 348 351 353 357 358 359 359 359 360 361 361 360 360 360 360 358 359 360 358 356 357 358 358 358 362 366 365 364 364 364 363 363 363 362 362 363 362 363 363 363 363 364 363 363 363 364 363 362 361 359 358 358 356 355 357 358 357 356 356 355 354 354 353 352 350 347 344 341 339 336 334 333 330 328 330 333 333 332 332
331 331 331 333 335 339 344 346 348 352 356 358 359 360 361 361 362 362 361 361 361 361 361 361 359 357 357 359 361 362 363 366 365 364 364 364 363 363 363 362 363 363 363 363 363 363 363 363 364 363 363 363 362 360 359 358 358 357 355 355 357 357 355 353 355 354 352 351 350 348 347 345 342 338 335 334 333 332 329 328 329 331 332 331 331
331 331 330 330 332 336 340 342 345 349 352 355 357 359 360 360 361 360 360 360 360 360 360 360 359 358 358 360 361 363 364 365 364 364 363 363 363 362 363 363 363 363 363 363 363 363 363 362 362 362 363 362 361 360 359 358 357 357 356 355 355 354 352 352 352 351 349 347 346 344 343 340 337 335 334 333 332 329 328 329 330 331 331 331 330
329 331 330 328 330 333 337 338 341 346 351 353 354 357 357 358 358 358 357 358 359 359 359 359 358 358 358 359 361 362 363 363 364 363 362 362 362 362 363 363 363 363 363 363 363 362 361 360 361 361 361 361 359 358 358 357 355 353 351 350 349 349 349 349 348 347 346 345 343 341 338 336 334 333 333 332 329 327 327 330 331 331 331 331 330
327 330 329 327 327 330 332 333 335 341 345 349 352 353 354 355 356 356 355 356 356 357 357 357 357 357 357 359 360 361 363 362 363 363 362 362 362 363 363 362 362 362 362 362 361 360 359 358 359 359 358 357 356 354 353 351 349 348 346 346 346 347 347 346 344 343 343 342 340 338 337 336 335 333 332 330 329 328 328 330 331 331 330 330 330
326 329 328 326 326 327 328 328 331 336 340 342 344 348 350 351 353 355 355 355 356 356 356 355 355 356 358 359 360 361 362 362 361 361 360 360 360 361 360 360 359 358 358 358 357 357 357 357 356 354 353 351 350 348 347 345 344 343 342 342 343 343 343 342 341 340 338 337 336 335 334 334 333 331 330 330 331 331 330 331 331 331 330 329 329
326 327 327 327 326 326 325 324 327 332 336 338 341 345 347 347 348 349 350 351 351 352 353 354 355 357 357 357 356 357 358 359 358 359 359 359 358 358 357 356 355 353 353 352 352 351 350 350 348 346 345 344 344 343 342 341 340 340 340 340 340 340 339 338 337 336 334 333 332 331 331 330 330 330 331 331 332 332 331 331 330 328 327 326 326
326 326 327 327 326 325 324 324 323 324 327 330 334 339 342 342 342 343 345 345 345 346 349 351 354 354 353 349 348 349 352 354 355 354 355 355 354 353 352 351 350 350 349 348 346 344 343 342 341 340 340 339 339 339 339 338 338 337 337 337 337 336 336 335 334 333 332 331 331 331 331 332 331 331 331 331 331 330 329 328 326 325 325 324 324
325 325 326 326 325 323 323 324 322 320 321 323 325 329 332 334 334 336 339 341 341 342 342 343 343 344 344 342 342 345 347 349 349 350 350 350 350 349 348 347 346 345 343 342 341 340 338 337 336 336 336 336 336 336 336 335 334 334 334 334 333 332 332 331 330 330 330 331 330 331 331 331 330 329 329 328 327 326 326 325 324 324 323 323 323
324 324 324 325 324 323 322 323 324 323 322 321 321 321 322 322 323 327 333 338 338 337 337 336 336 338 340 341 343 346 346 345 345 345 344 344 343 341 340 340 339 338 337 336 335 334 334 334 333 333 332 333 333 332 332 331 331 330 330 329 329 329 329 329 329 329 329 329 328 328 328 327 327 326 326 325 324 324 323 323 323 322 322 322 322
Wind_Speed
49 48 46 44 43 43 44 45 46 45 44 42 41 40 38 37 36 34 32 30 27 25 24 23 23 22 22 23 23 22 21 21 21 21 21 20 20 19 19 19 18 18 17 16 15 17 19 20 21 21 20 19 19 19 18 17 15 13 12 11 10 9 9 9 10 9 5 5 6 5 6 7 7 7 9 10 9 8 7 6 6 7 9 10 11
49 48 46 45 44 43 44 45 46 47 46 45 43 41 40 38 37 36 34 33 30 28 26 24 24 24 23 24 24 24 24 23 22 22 22 22 22 21 21 21 20 19 19 19 18 17 18 19 21 21 21 19 18 18 17 16 14 12 11 12 12 11 10 10 12 12 9 8 8 8 8 9 9 9 11 12 11 10 8 6 6 8 9 11 13
48 47 46 45 43 42 43 45 46 47 47 47 46 44 42 40 39 38 37 35 33 31 29 27 26 25 25 25 25 26 26 26 25 24 24 23 23 23 22 22 22 21 20 20 19 19 18 19 19 19 19 19 17 15 14 14 14 13 12 13 14 12 11 12 13 15 15 14 12 11 11 10 11 11 12 12 12 13 12 10 10 11 11 13 16
48 46 46 45 43 42 43 44 46 47 48 48 47 46 45 43 42 40 39 37 36 34 32 30 28 27 27 27 26 27 29 29 27 26 25 25 24 24 24 24 23 23 22 21 21 20 20 20 19 19 18 18 17 15 14 14 15 15 15 15 15 14 13 13 15 15 17 18 16 15 14 12 12 12 12 13 13 14 14 13 12 14 15 17 19
49 47 46 45 44 43 43 43 46 48 48 48 48 47 46 46 44 43 41 40 38 36 35 33 31 30 29 29 28 28 29 31 30 29 27 26 25 25 25 25 25 24 23 23 22 22 22 22 21 20 19 19 17 16 16 16 15 16 16 16 16 15 15 15 17 17 19 20 19 16 14 13 13 12 12 14 15 16 15 14 14 16 18 20 21
49 48 47 45 45 44 43 43 45 46 48 48 48 47 47 47 46 45 44 42 40 38 37 35 33 32 31 30 29 28 29 31 32 31 30 28 27 26 26 26 25 25 24 24 23 23 23 23 22 21 21 20 19 18 17 17 17 16 17 16 16 16 16 17 18 19 19 20 19 17 14 13 14 13 12 15 17 18 18 16 16 18 21 21 20
48 48 47 46 46 45 45 44 43 44 46 47 48 48 48 47 47 46 45 44 42 40 39 37 36 34 33 32 31 29 29 30 32 33 32 31 29 28 27 27 26 26 25 24 24 24 24 23 23 22 22 21 20 19 18 18 17 17 17 16 15 16 17 17 17 18 19 18 18 17 15 15 15 14 14 16 17 17 19 19 19 20 21 20 19
48 48 47 47 46 46 45 44 43 42 43 45 47 48 49 48 48 47 46 45 44 42 41 39 37 36 35 35 33 31 31 31 32 33 34 33 32 31 29 28 28 27 26 25 24 24 24 24 23 23 22 22 20 19 18 17 17 17 17 16 16 16 17 17 16 17 17 17 17 16 17 17 16 16 16 17 18 17 17 19 21 21 19 17 17
46 46 46 47 46 45 45 44 44 43 43 44 46 48 49 49 48 48 47 47 46 44 42 41 39 38 37 37 36 34 34 33 33 34 34 34 33 32 31 30 29 29 27 26 25 25 24 24 24 24 23 22 21 20 19 18 18 18 17 17 17 17 17 17 17 17 17 17 17 17 18 19 17 17 17 18 19 19 18 19 21 21 18 16 16
44 44 45 45 44 44 44 45 45 44 44 45 46 47 48 49 49 48 48 48 46 45 44 42 41 40 39 39 38 38 37 35 34 34 35 34 33 32 31 31 31 30 29 28 27 25 24 24 23 23 23 22 21 21 20 20 20 20 18 17 16 16 16 16 16 16 17 18 18 18 19 20 18 18 19 18 18 19 19 19 20 19 17 17 16
42 43 44 43 43 43 43 43 44 44 45 45 46 47 48 48 49 49 49 48 47 46 44 43 42 41 40 40 40 40 39 37 35 35 35 35 34 33 32 31 31 31 30 30 29 27 26 25 24 23 23 23 22 21 21 20 20 19 18 16 15 14 15 15 16 16 17 18 18 18 19 20 18 18 19 18 17 17 18 18 18 17 17 18 19
40 42 42 42 42 42 42 42 43 43 44 44 46 47 48 48 49 49 49 48 48 46 45 44 43 42 41 41 41 41 40 39 37 35 35 35 34 34 33 32 32 31 31 31 30 29 28 27 26 25 24 24 23 23 23 22 22 21 19 17 16 16 17 17 17 17 18 19 19 19 19 20 20 19 18 17 16 16 16 16 15 16 16 17 20
39 40 41 41 41 41 40 40 41 41 41 42 43 45 47 49 49 50 49 49 48 48 46 45 44 43 42 42 42 42 41 40 38 37 36 35 34 34 34 33 33 32 32 31 31 30 30 29 29 28 26 25 25 25 25 24 23 23 22 20 19 20 20 20 20 19 20 21 21 20 19 19 20 19 17 16 16 16 15 14 14 14 16 17 19
41 40 41 42 42 41 40 40 40 39 39 39 40 43 47 49 49 50 49 49 49 49 48 46 45 45 44 43 43 42 41 40 39 38 37 36 35 35 35 35 34 33 33 32 31 31 30 30 29 29 27 26 26 25 25 24 23 23 23 23 22 22 22 22 22 22 23 23 23 22 20 20 21 20 15 13 14 14 14 14 14 14 15 17 18
40 40 40 41 43 42 41 41 40 39 38 39 39 41 44 48 49 49 49 50 50 50 49 48 47 46 45 45 44 44 42 39 38 38 37 37 36 36 36 36 36 35 34 33 33 32 31 30 29 29 27 27 26 25 25 24 24 24 24 24 23 23 24 24 24 24 25 25 24 23 22 22 22 20 15 13 13 14 14 15 15 15 16 16 16
36 38 39 39 41 43 43 42 41 40 39 39 40 41 42 45 48 49 49 49 50 50 49 49 48 47 46 46 46 45 43 40 38 37 36 36 36 37 38 38 38 38 36 35 34 32 31 31 31 30 29 27 26 26 25 25 26 26 26 26 26 26 27 27 25 25 26 26 26 25 24 24 23 20 17 15 14 13 14 16 15 15 15 16 15
29 34 38 38 38 40 43 45 43 41 41 41 42 42 41 42 45 48 49 50 50 50 50 50 49 48 47 47 47 46 44 41 39 38 36 34 35 36 37 38 38 38 37 35 34 33 32 32 31 31 30 28 27 26 26 27 27 28 29 29 29 31 31 30 28 27 26 26 26 25 25 25 24 21 18 17 15 14 15 16 15 14 15 16 15
19 23 31 37 38 38 41 46 47 44 43 44 44 43 42 42 43 45 49 50 50 50 50 49 49 49 48 47 47 46 44 42 40 39 37 35 35 34 34 35 36 37 36 35 34 34 33 32 32 32 32 30 28 28 28 28 28 28 29 30 31 32 32 30 30 29 28 26 25 25 25 26 24 22 19 17 15 15 16 16 14 13 14 15 14
13 14 19 28 36 39 41 45 49 47 45 45 45 44 43 42 42 43 47 49 50 49 48 49 49 49 49 48 47 46 45 43 41 40 38 37 36 35 34 34 34 34 34 34 34 34 33 33 32 33 33 31 29 29 29 29 28 28 28 28 30 30 28 26 26 26 25 25 24 24 25 24 23 22 20 17 15 15 16 16 14 14 16 16 16
17 14 13 17 27 38 44 46 49 48 46 45 45 45 44 43 43 43 45 47 49 48 48 48 49 49 49 49 48 47 46 44 43 41 40 39 38 36 35 35 35 33 32 32 32 32 32 32 31 32 32 31 30 30 31 30 29 28 28 29 30 28 24 23 24 23 23 23 23 23 24 24 23 23 21 17 16 15 16 16 16 17 19 18 18
22 20 17 14 18 28 40 48 50 48 46 45 45 46 45 45 44 44 44 45 47 48 48 48 48 49 49 49 49 49 47 45 44 42 41 40 39 38 38 37 36 34 33 32 31 32 31 30 29 28 29 29 29 30 31 32 31 31 31 31 30 27 25 25 25 24 24 25 24 24 24 25 25 24 20 17 16 16 17 18 18 18 20 21 20
25 23 22 20 17 20 30 42 48 48 46 46 46 47 47 46 45 45 44 45 46 48 48 48 47 48 48 48 49 49 49 47 45 43 42 42 41 40 40 39 38 36 35 34 33 33 32 31 29 27 26 27 28 29 31 32 33 34 33 32 31 30 29 29 28 27 27 27 26 26 26 26 25 23 20 18 18 18 19 19 18 18 19 20 20
26 26 26 25 23 21 24 32 42 48 48 47 48 48 48 48 47 46 46 45 46 47 48 48 47 47 47 48 49 49 49 48 47 45 43 42 42 42 42 40 39 38 37 36 35 33 32 32 31 28 26 26 27 28 30 32 34 36 36 35 34 33 33 32 30 29 28 28 28 28 27 26 25 24 22 21 21 21 20 20 18 17 17 18 18
26 28 29 28 27 26 25 28 36 45 48 48 48 48 49 49 48 47 47 46 46 47 48 48 48 47 47 47 48 49 49 49 48 47 45 43 42 43 43 42 41 39 39 38 37 35 34 34 33 29 27 27 27 27 28 29 31 33 34 36 37 37 36 35 33 31 29 28 29 29 28 27 25 24 23 23 23 23 22 20 18 17 16 16 17
25 27 29 30 30 30 29 29 33 41 47 49 49 49 49 49 49 48 47 47 47 47 48 48 49 49 47 47 48 48 48 49 49 49 47 45 43 43 44 44 43 41 40 40 39 38 38 37 34 31 29 29 28 27 28 28 28 29 30 32 34 35 36 35 33 31 29 29 28 28 27 26 25 24 23 23 25 25 24 22 20 18 17 17 16
26 27 28 30 31 30 30 30 31 38 45 49 50 49 48 48 49 48 48 47 48 48 48 48 49 49 49 49 49 48 47 48 49 49 48 47 45 44 44 45 45 44 44 44 43 43 42 40 36 33 32 31 30 30 29 28 27 27 27 28 29 29 29 28 28 27 27 27 26 26 25 24 23 22 23 24 26 26 25 23 22 21 19 18 16
28 28 28 30 31 30 30 30 31 36 43 48 49 50 49 48 49 49 49 49 48 48 48 48 48 49 50 50 48 46 46 47 48 49 49 48 46 44 43 44 45 45 45 46 45 44 43 40 37 35 34 33 33 33 32 30 29 29 27 26 25 24 23 23 23 24 24 24 24 23 22 21 21 22 23 24 25 24 22 21 21 22 21 18 15
29 28 28 29 30 29 29 29 30 34 42 47 49 50 50 49 50 50 50 49 48 47 47 48 48 49 50 48 46 45 46 47 49 51 51 49 47 44 42 42 43 43 43 42 41 40 39 38 37 37 36 36 36 36 35 34 32 31 28 26 23 21 20 21 22 23 22 22 22 21 21 21 21 21 22 23 22 20 20 20 21 22 20 16 14
30 29 28 28 29 29 28 27 29 33 40 45 48 50 51 50 50 49 49 48 47 46 46 47 48 49 48 48 47 48 49 51 53 53 51 49 46 43 40 39 39 39 38 36 36 36 37 38 38 38 38 38 38 37 37 36 35 33 30 27 24 22 22 23 24 24 23 22 22 22 21 20 20 19 20 21 20 19 19 21 21 21 19 16 16
31 30 30 29 28 28 27 27 30 33 38 44 47 49 49 49 48 48 47 47 46 46 45 45 45 45 46 48 50 52 54 54 53 51 49 49 47 43 39 36 34 34 33 32 34 37 39 39 39 39 39 39 39 40 39 38 37 35 32 30 27 26 26 26 26 25 24 24 23 22 21 21 21 19 19 20 20 20 20 21 21 20 18 17 16
33 33 32 30 28 26 26 28 31 34 38 43 47 48 48 48 47 47 46 46 45 45 44 44 43 43 44 46 49 51 53 52 51 50 50 49 47 44 40 37 34 31 31 32 35 38 39 40 40 39 39 40 40 40 39 39 38 36 34 32 30 29 29 29 27 26 25 25 24 23 23 23 22 21 20 20 20 20 21 21 21 19 17 16 15
31 33 34 32 28 25 24 26 32 36 39 42 46 47 47 47 47 47 46 46 46 45 43 43 42 42 43 44 46 49 50 50 51 51 50 50 48 45 41 38 35 33 33 35 37 39 40 41 41 40 40 41 41 40 39 39 38 36 33 31 29 28 28 27 27 26 25 24 24 24 24 24 23 21 20 20 20 20 21 22 22 20 17 16 14
27 30 33 33 28 24 23 26 32 37 40 42 45 47 47 48 48 48 47 47 46 45 44 42 40 40 41 42 44 46 47 48 49 50 51 50 49 46 42 39 38 37 37 38 40 40 40 42 42 42 42 43 41 40 39 39 38 35 31 29 27 25 24 22 22 24 25 24 24 24 23 22 21 20 20 20 19 20 22 23 21 19 18 16 15
23 25 29 32 30 26 23 25 31 37 40 43 47 49 50 51 51 50 49 48 48 47 45 43 40 40 40 41 42 43 44 45 47 48 50 50 49 47 43 40 39 40 41 41 42 42 42 43 43 43 43 43 43 42 43 42 39 35 30 27 25 23 19 16 17 20 22 22 22 22 21 20 19 19 19 19 19 20 22 23 22 20 19 17 16
21 23 25 28 31 31 27 25 30 37 42 45 48 51 53 53 53 51 49 49 49 48 47 44 41 40 40 39 40 41 42 43 44 45 46 47 47 47 45 43 43 43 43 44 45 44 44 44 44 44 44 44 44 44 42 39 35 31 27 24 23 21 18 15 15 17 18 19 19 18 19 19 19 18 18 19 19 21 23 24 23 21 19 17 16
20 21 23 23 27 32 33 30 30 35 41 44 46 49 50 51 51 51 49 48 48 46 45 42 40 39 39 39 38 39 41 42 42 43 44 44 45 46 46 47 47 47 46 46 46 45 45 45 45 45 44 44 45 43 38 34 30 27 23 22 22 22 20 17 16 17 18 19 19 17 17 19 20 19 19 20 20 21 22 21 21 20 18 17 16
20 20 21 22 24 30 36 36 33 34 39 44 45 46 48 48 48 49 50 49 47 45 43 42 42 42 41 39 38 38 40 40 41 43 43 43 44 44 45 46 46 46 47 46 45 45 45 44 44 44 43 44 44 38 31 29 29 26 24 25 26 24 23 20 19 20 20 21 22 21 20 20 20 20 20 20 20 20 19 20 20 19 17 16 15
19 19 20 22 24 28 34 38 37 35 39 44 45 45 47 48 47 48 50 49 47 44 42 42 44 46 44 39 37 37 38 39 41 44 44 44 44 45 44 44 43 43 44 43 42 43 42 41 42 42 41 43 41 32 22 19 20 19 20 25 26 24 24 24 23 23 24 24 25 25 23 22 21 21 21 20 19 18 19 21 20 19 18 17 16
20 18 19 22 24 28 31 33 35 35 36 39 41 41 42 43 44 47 49 49 46 44 42 41 44 48 46 39 36 36 37 38 41 44 45 45 44 44 43 43 42 42 41 40 39 39 39 38 39 38 39 42 44 36 27 22 20 16 17 21 23 23 25 26 25 26 27 27 28 27 25 23 22 21 20 19 18 18 20 21 20 19 18 17 17
24 20 19 19 23 27 30 31 32 33 34 37 40 42 41 41 43 46 47 47 45 44 43 42 44 46 45 40 35 33 35 38 41 43 44 44 44 43 42 42 42 41 40 39 38 38 38 36 36 38 40 42 41 35 28 24 20 16 14 17 20 20 22 24 25 26 27 28 28 27 26 23 21 20 20 19 19 19 20 20 20 19 19 18 17
27 23 20 19 20 23 27 29 32 35 35 38 41 43 43 42 44 46 46 45 45 44 44 44 44 43 43 40 34 30 32 35 38 41 43 42 42 42 42 42 42 41 40 39 38 37 36 36 36 38 38 37 35 31 25 21 20 18 16 18 22 22 21 23 24 25 26 27 28 28 27 23 21 21 22 21 21 20 20 19 19 20 19 18 18
28 24 21 20 18 19 22 25 31 36 38 40 42 42 41 41 43 45 45 45 45 44 44 45 44 42 41 39 34 29 30 34 37 40 41 41 40 41 41 40 40 40 39 37 36 35 36 36 36 35 33 32 32 29 23 20 22 21 17 19 25 25 23 23 24 25 26 28 30 30 27 23 22 22 22 22 22 21 20 19 19 20 20 20 20
29 24 21 18 16 16 18 21 26 33 37 40 41 41 40 39 40 41 42 42 43 43 43 44 43 41 39 38 35 32 33 36 38 38 39 39 39 39 39 38 37 37 36 35 34 34 34 33 32 32 33 32 29 25 22 23 25 23 19 22 27 27 22 21 22 24 26 29 30 28 25 23 23 24 24 23 22 21 20 20 20 21 21 21 21
30 25 20 16 13 13 14 15 20 28 33 35 37 38 38 37 38 39 39 40 40 42 44 44 43 41 37 35 36 36 36 37 38 37 37 38 38 38 38 38 37 36 35 34 33 33 33 32 33 33 32 29 26 25 26 27 26 24 21 22 23 22 20 20 22 25 28 27 25 23 22 23 24 25 25 24 23 21 20 21 21 22 22 22 21
30 26 20 14 10 9 10 10 14 23 29 32 34 35 35 35 37 38 39 40 40 42 43 43 41 39 37 36 37 38 38 39 39 37 37 37 37 37 37 37 36 35 33 33 33 33 33 33 33 31 28 26 26 26 26 24 21 18 14 12 14 18 20 21 23 25 26 24 23 23 24 25 26 27 26 24 23 22 22 23 23 22 23 23 22
28 25 19 13 8 4 5 3 7 15 22 27 31 34 34 34 36 37 37 38 40 41 41 40 38 36 36 37 39 40 39 39 39 39 39 39 39 39 38 36 35 35 34 34 33 32 30 28 28 26 25 26 25 23 20 17 14 11 10 11 13 17 19 20 22 23 24 23 24 24 26 27 28 27 25 24 24 24 24 23 22 22 22 22 21
22 22 18 13 8 3 2 5 7 10 15 18 23 27 29 30 32 33 35 37 39 40 39 38 36 36 37 39 41 41 40 39 39 38 38 38 38 37 37 36 35 34 33 33 32 30 28 27 26 25 23 22 20 17 15 13 12 12 13 14 15 17 19 20 21 21 22 23 23 24 25 27 27 26 25 24 24 24 23 22 22 21 21 20 19
16 16 16 14 10 6 6 10 13 15 16 19 22 25 27 28 29 31 32 33 35 36 37 37 37 38 39 41 42 41 40 39 38 37 36 35 34 33 33 32 30 28 26 26 26 25 24 23 22 20 18 17 16 16 15 16 16 17 18 19 19 20 20 20 19 20 21 21 22 23 25 26 25 24 24 23 23 22 21 21 20 19 18 18 18
12 13 14 14 11 7 7 9 13 16 18 21 24 27 29 31 32 34 35 35 35 36 38 39 40 41 42 41 40 39 38 37 36 35 34 33 31 30 28 26 25 24 23 23 22 21 20 19 18 18 17 18 18 19 19 19 20 21 21 21 21 20 18 18 17 18 19 19 20 20 22 22 22 22 21 21 20 20 19 19 19 18 18 17 17
10 11 13 13 12 10 8 8 11 14 17 19 23 27 30 31 32 34 36 38 38 38 37 38 38 39 38 36 33 32 31 31 30 30 30 29 28 26 24 23 22 22 22 22 22 21 20 20 19 19 19 19 19 19 19 19 20 20 20 20 20 18 17 16 16 16 17 17 17 18 18 20 20 20 19 18 18 18 18 18 18 18 18 18 19
8 10 11 11 10 9 8 9 10 13 16 18 19 22 25 28 31 34 36 37 36 35 34 34 33 33 32 30 28 26 26 27 28 28 28 26 25 23 22 20 20 19 19 20 20 19 19 19 19 19 19 19 19 19 18 18 18 18 19 19 19 18 17 17 17 16 16 16 16 16 17 17 17 17 16 16 16 16 17 17 18 18 18 18 19
Wind_Direction
219 221 222 223 224 224 222 219 219 219 220 222 224 224 223 223 224 225 226 227 227 225 225 224 223 223 223 220 217 217 218 220 221 221 221 220 217 212 213 217 218 214 211 209 208 210 207 203 202 203 209 217 221 226 234 238 241 242 244 251 253 258 265 268 272 274 268 279 294 309 317 319 329 335 333 338 342 343 341 333 329 341 349 346 345
219 221 222 223 224 226 225 223 221 221 222 223 225 226 227 227 227 228 228 228 229 229 229 229 228 226 225 223 221 219 219 220 222 223 224 222 220 218 216 218 220 218 216 215 213 214 212 208 206 205 211 218 220 223 232 238 243 244 246 253 254 256 264 273 282 288 293 302 310 321 329 329 335 341 337 337 343 345 347 344 339 345 347 340 340
219 221 222 223 225 226 227 227 225 223 223 224 226 227 228 229 230 231 232 232 232 232 232 232 232 230 228 226 224 221 220 220 221 224 225 224 222 221 219 220 222 221 219 217 216 219 222 220 217 214 216 222 224 227 235 242 250 255 256 258 260 261 265 271 279 288 297 306 315 324 328 327 331 337 335 334 339 343 345 346 345 345 343 339 342
219 221 222 224 226 226 227 228 228 226 225 225 227 228 229 231 232 233 234 235 235 235 235 234 234 233 232 229 226 225 222 220 220 222 225 226 225 224 223 223 223 224 222 220 218 221 225 228 228 227 228 231 234 238 242 245 250 256 260 261 264 267 267 269 274 283 291 299 309 319 321 321 325 331 332 332 336 341 342 343 343 342 342 343 345
217 219 222 224 225 226 227 228 229 228 228 228 228 229 229 231 232 234 235 235 236 237 237 236 234 234 234 232 230 228 225 222 220 221 224 226 226 226 226 226 226 226 226 225 224 224 227 230 232 235 237 239 241 244 246 248 249 255 259 261 264 268 268 268 270 275 281 289 300 308 312 315 320 328 332 331 334 339 339 340 340 339 341 343 343
217 218 221 223 224 226 227 227 229 229 230 230 230 230 230 230 232 233 234 235 236 237 237 237 236 236 235 234 233 231 228 225 223 222 223 225 227 227 228 229 229 229 229 229 230 230 232 234 235 238 242 244 246 246 247 251 254 255 257 259 262 265 266 267 269 271 275 282 290 299 308 315 318 324 331 329 330 336 336 337 338 337 338 339 339
216 218 220 223 225 227 228 228 229 230 231 232 232 232 232 232 232 233 234 235 236 237 237 237 238 238 237 234 234 233 232 230 227 226 225 225 226 227 228 230 231 231 231 230 231 233 234 236 238 240 243 246 249 250 251 253 255 256 256 257 259 260 262 265 266 269 272 276 284 294 306 312 313 319 327 326 327 331 331 331 335 336 336 336 338
216 217 219 222 225 227 229 230 230 232 233 233 233 233 233 233 233 233 234 235 236 237 238 239 239 239 238 236 234 233 233 233 231 230 228 227 227 228 229 230 231 233 233 232 232 233 234 236 238 241 244 248 252 254 254 254 255 257 257 257 258 259 262 265 267 269 272 275 282 292 301 304 308 316 323 324 325 327 326 325 329 333 335 336 340
216 217 219 222 226 228 230 230 231 232 233 234 234 234 233 233 234 234 234 235 236 237 239 240 240 239 238 237 235 233 233 233 233 232 232 230 229 229 230 231 232 233 235 236 236 236 236 236 238 241 244 248 252 254 255 255 256 258 259 260 261 262 264 266 269 272 274 277 283 290 295 298 305 314 319 323 323 323 323 323 323 325 327 332 341
218 219 221 224 228 229 230 231 232 232 233 234 234 234 233 233 232 233 234 235 236 237 238 239 239 239 238 237 235 234 234 233 232 232 233 233 233 232 231 231 231 232 234 237 238 238 238 238 238 240 242 245 248 250 251 252 254 257 258 257 257 259 264 268 271 273 277 279 283 288 291 294 304 313 317 321 322 321 321 320 317 318 321 326 339
221 222 224 227 229 230 231 232 232 233 234 235 234 234 233 231 231 232 233 234 235 236 236 237 237 238 237 236 236 235 234 233 232 232 233 234 235 235 235 234 233 232 233 235 238 240 241 241 241 241 242 243 246 247 248 250 253 255 254 251 252 258 265 270 273 276 278 280 284 287 288 294 305 313 315 320 321 318 315 313 311 314 320 327 337
222 224 227 229 230 231 232 233 233 234 235 235 234 234 233 231 230 230 231 233 234 235 235 235 236 237 236 236 236 236 236 235 233 233 232 233 235 236 238 238 237 237 236 236 238 240 243 245 246 246 246 247 249 250 250 252 255 254 250 248 252 259 265 270 274 277 279 281 284 286 287 294 304 310 315 318 315 308 306 305 306 312 321 329 335
223 224 226 229 230 232 233 234 235 235 236 237 236 234 232 231 229 229 230 231 233 234 234 235 235 236 236 236 236 236 237 237 236 235 234 233 234 236 238 240 240 241 241 240 240 240 242 245 247 249 250 251 252 253 253 255 255 253 251 250 252 255 260 264 268 271 275 278 280 283 290 296 301 308 313 311 303 299 301 303 306 314 323 330 332
226 224 225 227 230 233 234 235 236 237 238 238 237 235 232 231 230 229 229 230 231 232 233 234 234 235 235 236 236 237 238 238 238 238 237 235 235 236 238 240 242 243 243 244 244 244 244 246 248 249 251 251 252 254 254 255 256 255 254 253 253 255 257 259 263 265 269 273 276 284 293 297 300 305 307 298 292 293 297 302 308 315 321 326 328
225 226 225 226 228 231 235 236 237 239 239 239 238 237 234 232 230 229 228 228 230 231 233 234 234 235 235 235 236 237 238 239 239 239 239 238 237 237 238 240 242 244 245 246 247 248 248 249 250 251 251 252 252 253 255 256 258 258 257 254 254 257 258 259 262 264 268 272 276 284 291 294 299 301 295 285 285 288 293 299 306 313 317 321 323
230 231 231 229 228 230 234 236 238 239 240 239 238 238 236 234 231 229 228 228 229 231 233 234 234 235 235 235 235 237 239 240 240 240 240 240 240 240 240 241 242 244 246 247 248 249 249 250 251 252 252 252 252 253 256 259 260 262 261 257 256 257 258 260 261 263 266 269 273 279 285 289 294 293 286 282 283 285 289 294 301 310 312 312 312
242 240 238 235 232 232 234 236 237 239 239 239 239 238 237 236 233 230 228 228 228 230 231 233 234 235 235 234 235 237 239 240 240 240 240 240 241 241 241 242 243 245 247 248 249 249 249 250 251 252 252 251 251 253 256 259 260 261 261 259 258 258 258 259 261 263 264 266 269 272 276 281 286 287 286 286 285 283 284 290 298 303 300 299 300
253 253 247 243 240 237 237 237 237 239 240 240 240 239 238 237 235 232 229 228 229 230 231 232 233 234 235 235 235 237 239 240 241 240 240 240 241 241 242 243 244 246 247 247 248 248 249 249 250 252 252 251 251 253 256 257 258 257 257 257 257 257 258 259 261 264 265 267 268 269 272 277 282 286 288 286 279 276 278 285 293 291 286 288 289
257 269 265 256 249 244 241 239 237 239 241 242 241 240 239 239 237 235 232 230 230 230 231 232 232 233 235 236 237 238 240 242 242 242 242 241 241 241 242 243 243 245 246 246 247 248 247 247 248 250 252 252 252 254 255 256 255 254 254 255 255 256 258 260 262 265 267 268 270 271 275 280 283 288 288 280 268 268 273 280 282 278 277 278 277
254 265 273 272 260 250 243 239 237 239 242 243 242 241 240 239 238 236 234 232 230 230 231 232 233 233 234 235 236 238 240 242 244 244 244 244 243 243 243 243 243 243 244 245 246 247 247 246 246 248 250 253 254 255 257 256 255 255 255 254 255 259 265 268 269 271 272 272 274 276 279 282 283 285 284 275 266 266 269 272 273 271 270 271 271
254 259 264 274 271 256 245 239 237 239 243 243 242 241 240 239 237 236 235 233 230 229 230 232 233 234 234 235 236 238 240 242 244 246 246 245 245 244 244 244 245 245 245 246 248 249 249 247 245 246 249 252 254 256 258 259 258 258 257 258 261 266 271 273 274 276 276 275 276 277 278 279 281 281 279 272 267 267 267 270 273 271 268 267 270
256 257 259 263 270 267 253 243 238 238 240 240 239 239 239 237 236 236 235 233 231 230 229 231 233 234 235 235 236 237 239 241 243 245 247 247 246 246 244 245 247 247 247 248 250 252 254 253 251 250 251 255 257 258 260 261 261 261 261 263 266 267 268 270 273 274 273 274 274 274 275 277 278 279 277 271 268 269 271 274 277 275 271 270 272
261 259 257 257 260 264 263 253 244 239 238 237 237 237 237 235 234 233 233 232 231 230 229 229 231 234 235 235 236 237 238 240 242 244 246 247 247 247 246 246 248 248 248 249 252 257 259 259 259 258 258 259 259 259 260 261 260 261 263 264 265 266 266 268 270 270 269 270 271 271 273 275 276 276 275 272 272 274 276 280 284 282 275 271 270
266 263 259 257 257 258 263 261 251 243 239 236 235 235 235 234 232 231 231 231 230 230 229 229 229 232 234 235 236 236 237 238 240 243 245 246 246 247 247 247 247 247 248 251 255 259 261 262 263 265 265 264 262 261 260 259 259 259 260 261 262 263 264 265 267 267 268 268 268 269 271 272 272 273 273 274 276 278 280 282 283 278 270 266 263
271 267 262 258 256 257 261 262 254 245 239 235 233 233 233 232 230 229 229 229 229 230 230 229 229 230 232 234 235 236 236 237 238 241 244 245 246 247 247 247 247 247 249 251 255 258 261 264 267 269 267 265 264 263 260 258 258 258 258 257 257 257 258 260 262 263 264 264 264 265 267 268 270 272 273 274 275 276 277 278 275 269 263 259 258
277 271 267 262 258 257 260 262 257 247 239 234 233 233 233 232 231 229 228 228 229 230 231 230 229 229 230 233 234 235 236 236 238 240 242 244 245 246 246 247 247 248 251 253 256 258 260 264 267 267 266 266 265 263 261 260 259 260 258 255 252 251 251 252 253 255 257 258 260 261 263 266 268 269 269 269 269 270 271 270 267 263 260 257 259
281 276 273 269 264 260 260 261 258 247 238 233 231 230 230 231 231 230 228 227 228 229 230 230 230 230 230 231 233 234 236 236 237 240 242 243 244 245 245 246 246 246 249 251 254 256 258 261 263 263 263 264 263 263 263 262 261 261 260 256 250 247 246 246 248 250 252 254 257 259 261 263 263 263 263 262 262 262 261 260 260 259 257 255 258
281 278 276 274 269 262 259 261 259 249 238 232 229 227 227 227 228 229 230 230 229 229 230 230 231 231 231 231 231 233 235 236 237 239 241 243 243 243 244 244 244 244 245 247 249 251 253 255 256 257 258 260 261 262 263 262 262 263 263 260 254 248 245 245 246 247 249 251 253 255 257 259 259 260 259 256 254 253 251 252 255 255 252 250 253
280 277 276 277 273 264 259 262 261 251 240 233 231 230 229 229 229 231 234 235 236 237 237 236 235 234 233 232 232 232 234 236 238 240 242 245 246 245 244 244 243 242 242 242 244 247 249 250 251 253 254 256 258 260 261 262 263 264 264 263 259 253 247 245 245 247 250 251 252 254 257 259 260 260 257 253 248 244 244 247 250 248 245 246 251
283 278 277 279 276 267 263 264 261 252 242 235 231 229 229 230 231 233 235 237 239 242 243 243 243 240 236 235 235 235 237 239 240 241 243 246 249 249 248 247 244 241 240 240 241 243 246 248 250 251 253 255 256 258 260 261 263 263 263 263 262 258 253 249 247 248 251 252 254 257 260 261 262 263 260 254 246 240 241 244 246 244 242 245 249
288 282 278 279 277 271 267 264 259 251 242 235 231 227 225 225 227 230 233 235 237 239 242 244 245 244 243 242 240 238 239 241 242 243 244 247 250 252 251 249 246 244 243 242 241 243 245 248 250 251 252 253 255 257 259 260 261 262 263 263 263 261 258 254 251 249 250 253 256 260 262 263 264 265 262 254 245 241 240 240 238 236 238 244 248
290 283 278 277 279 278 275 268 258 250 242 233 228 226 224 223 224 226 229 232 235 237 239 241 243 245 248 248 245 242 241 241 241 243 245 248 250 253 253 251 249 247 246 244 243 245 247 248 251 252 252 253 255 256 256 257 258 259 261 262 263 263 262 259 255 251 251 253 257 261 263 264 265 263 256 247 242 241 239 234 230 231 236 243 247
291 285 278 276 276 277 278 268 254 245 239 232 227 224 223 223 225 227 229 231 233 235 236 238 241 244 247 248 247 246 244 244 243 244 245 247 250 252 254 253 251 248 247 245 246 247 248 250 251 253 254 255 256 256 256 255 255 255 255 256 259 263 266 264 257 251 250 253 257 260 262 262 259 254 246 242 242 242 236 231 228 230 236 242 240
291 286 280 275 270 268 271 265 251 240 234 230 227 225 225 228 229 230 230 229 229 230 231 233 237 241 243 245 246 246 246 246 246 245 245 247 249 251 251 251 249 248 246 247 247 249 250 251 252 253 255 255 256 256 255 253 253 254 256 256 259 265 267 259 246 242 245 248 251 254 255 253 248 242 238 240 241 236 231 230 229 231 237 240 233
290 283 279 276 270 265 263 263 255 244 234 227 225 224 226 229 230 229 230 230 229 228 229 231 234 238 241 242 244 244 243 245 246 246 246 247 248 249 249 248 247 247 247 247 248 249 251 251 253 254 255 255 257 256 253 250 252 259 262 260 259 262 259 246 233 231 233 233 237 245 247 242 235 232 235 239 238 233 230 230 231 234 238 235 223
294 282 274 273 271 266 261 258 253 245 235 227 223 222 224 226 227 228 230 230 229 228 230 232 235 238 239 240 242 242 241 242 243 245 246 247 247 248 247 247 248 248 249 249 249 250 251 251 252 253 254 256 257 253 246 245 253 261 262 258 255 255 253 243 232 225 224 225 230 235 235 231 227 226 229 234 238 238 236 234 234 236 233 223 214
303 286 271 264 263 263 260 256 252 246 239 231 225 221 221 224 226 228 230 231 230 229 230 232 235 237 237 237 239 240 240 240 241 243 244 245 245 245 246 247 248 249 249 250 250 250 251 251 252 253 254 256 256 250 242 244 254 258 259 258 255 253 250 243 231 223 223 227 231 230 227 227 226 225 226 230 234 235 233 230 230 230 221 212 214
310 288 270 261 256 255 257 257 253 248 241 235 230 225 223 223 225 228 231 233 233 232 232 233 235 235 234 234 236 238 239 239 239 240 240 241 241 242 243 244 245 246 247 248 249 249 250 251 252 254 256 257 255 247 238 245 252 252 255 257 254 250 248 244 235 230 230 234 236 235 230 228 227 226 226 227 226 226 226 227 224 218 211 212 218
322 294 268 258 254 252 252 254 254 250 245 240 237 235 230 227 228 229 230 230 231 233 235 236 236 235 234 232 232 234 236 237 237 238 238 239 240 240 240 240 240 241 243 245 246 247 248 250 252 255 256 257 255 250 249 255 251 240 246 257 257 253 250 245 239 238 238 240 241 239 233 228 226 224 223 221 220 219 221 222 217 210 211 219 221
330 310 283 265 257 250 245 246 249 251 248 243 240 238 236 234 233 232 231 231 233 236 239 238 238 237 236 233 231 232 235 237 238 239 238 239 240 239 238 238 238 238 240 242 244 245 246 249 252 254 254 256 258 259 261 259 247 234 245 264 266 262 258 252 246 242 242 242 241 237 231 224 221 219 218 218 218 216 215 214 213 213 217 223 224
333 321 303 286 270 253 241 241 246 248 246 242 239 236 234 234 235 235 236 236 238 240 242 241 240 240 238 235 232 233 235 238 240 241 240 240 240 240 238 238 238 238 238 240 241 242 244 247 251 253 255 258 262 265 264 260 254 253 262 269 268 266 264 259 251 246 243 241 239 234 229 222 217 216 216 214 212 212 212 213 215 216 217 218 219
337 326 314 302 285 258 238 235 243 245 243 240 238 236 233 232 234 236 238 239 240 241 241 240 239 239 238 234 230 228 232 237 239 239 238 238 237 237 237 236 236 235 236 237 238 240 243 246 249 253 257 259 259 259 261 270 276 275 270 267 269 270 266 258 251 245 238 235 233 231 227 222 216 215 213 210 210 212 216 217 216 216 216 215 218
341 328 318 312 296 265 238 229 234 239 238 235 233 231 232 233 235 237 239 239 239 238 237 236 236 236 233 229 225 222 225 229 231 232 233 233 233 233 233 233 233 233 234 235 236 238 241 244 247 252 254 254 256 263 273 279 278 272 263 262 267 268 261 252 245 238 230 225 224 225 223 219 214 210 209 209 211 215 218 219 218 219 218 217 218
345 332 321 317 303 270 244 230 227 229 231 230 227 225 226 228 231 234 234 233 232 232 231 230 231 229 226 223 220 218 219 222 224 225 228 229 230 230 231 231 232 233 234 236 237 239 242 244 246 247 247 251 259 268 272 270 266 263 261 262 261 255 246 238 233 229 225 220 215 213 211 208 206 205 205 208 211 215 218 220 219 219 220 220 223
348 338 327 325 314 274 249 236 223 219 220 221 221 220 220 222 225 226 226 226 227 227 226 224 224 222 219 217 215 213 213 215 218 220 224 226 228 228 228 229 230 231 233 235 237 237 237 238 238 239 243 250 256 257 256 257 257 255 250 244 236 234 232 227 221 220 220 216 210 206 202 199 198 201 205 210 214 218 220 221 220 221 224 227 230
350 341 331 333 335 285 244 232 211 208 208 209 211 211 211 213 217 220 221 221 221 220 218 217 216 215 214 213 212 210 210 211 214 217 220 222 223 224 226 228 229 231 232 232 232 231 231 234 236 238 241 244 243 239 236 238 237 224 206 199 208 220 224 220 214 213 213 211 209 205 202 200 201 206 211 216 218 218 217 219 221 223 226 229 232
350 344 337 342 359 26 98 101 130 167 179 180 185 190 194 200 208 214 217 218 218 216 214 211 209 209 209 210 210 208 207 208 209 209 210 211 212 215 218 221 222 223 224 223 223 225 229 233 234 233 230 226 222 217 212 204 192 182 179 182 192 203 209 210 208 206 204 205 206 207 207 208 211 213 215 215 214 212 213 218 223 226 228 230 233
352 352 350 352 3 31 72 90 108 131 145 151 160 172 179 182 186 192 198 200 201 201 201 200 200 201 202 202 200 199 199 200 201 202 203 206 208 210 212 213 214 215 216 216 215 215 216 215 213 209 203 197 191 188 184 179 177 179 180 181 186 194 199 199 198 198 200 203 207 209 211 212 213 212 210 209 210 213 217 222 224 226 227 229 232
355 2 7 6 11 33 62 77 90 105 121 134 145 157 165 167 167 170 175 176 176 178 182 186 190 194 193 189 185 183 186 191 195 196 199 202 204 204 205 207 210 212 213 210 205 200 195 192 190 187 183 180 179 178 177 177 179 181 183 185 190 194 195 194 195 199 202 204 205 206 208 210 210 210 210 212 215 218 221 222 223 226 229 234 240
1 8 17 17 19 37 62 74 77 84 96 111 125 136 144 150 153 158 162 164 164 166 169 172 176 179 179 174 169 169 175 181 186 188 190 192 194 196 199 201 202 203 201 198 194 190 185 181 178 176 175 175 176 176 175 175 178 180 183 185 188 188 187 189 193 196 199 201 203 205 207 210 212 213 214 216 218 219 222 225 229 234 239 243 246
17 20 28 28 24 36 61 77 80 81 85 90 98 108 119 126 132 141 151 157 158 159 160 161 161 163 164 163 163 167 173 178 179 181 182 183 184 185 187 187 187 187 187 185 183 179 177 174 171 170 170 170 171 171 171 173 175 178 179 179 179 178 179 183 189 194 198 201 204 206 208 211 214 217 220 222 224 227 231 234 238 242 246 249 252